Location: Unspecified
(0.0000°N, 0.0000°E)
Time: 05:40:03
(UTC+00:00)

SR - Visible Passes

Search period start: 21 May 2026 00:00
Search period end: 31 May 2026 00:00
Orbit: 568 x 852 km, 66.7° (Epoch: 20 May)

Date Brightness Start Highest point End Pass type
(mag) Time Alt. Az. Time Alt. Az. Time Alt. Az.
21 May ? 04:04:51 69° E 04:04:51 69° E 04:09:10 10° NNE visible
22 May ? 03:11:53 14° ENE 03:11:53 14° ENE 03:12:54 10° ENE visible
22 May ? 04:50:58 17° WNW 04:51:02 17° WNW 04:54:01 10° NNW visible
23 May ? 03:57:56 30° N 03:57:56 30° N 04:00:26 10° N visible
24 May ? 03:04:50 11° NE 03:04:50 11° NE 03:05:07 10° NE visible
25 May ? 03:50:44 13° N 03:50:44 13° N 03:51:18 10° N visible
